Location: Hawks Ness
(60.2333°N, 1.1667°W)
Time: 06:12:41
(UTC+00:00)

ADEOS - Pass Details

Date: 22 October 2019
Orbit: 793 x 794 km, 98.8° (Epoch: 18 November)

Event Time Altitude Azimuth Distance (km) Brightness Sun altitude
Rises 03:53:24 0° 19° (NNE) 3,312 7.3 -23.6°
Reaches altitude 10° 03:55:46 10° 23° (NNE) 2,378 6.6 -23.3°
Maximum altitude 04:00:58 59° 103° (ESE) 921 4.1 -22.7°
Enters shadow 04:05:54 11° 182° (S) 2,281 5.7 -22.2°
